Lakeville, MN

12:32 PM CST on November 21, 2017 (GMT -0600)
Airlake

Weather History for KLVN - November, 2014

Change the Weather History Date:

Saturday, November 29, 2014

  Actual Average Record
Temperature  
Mean Temperature 26 °F -  
Max Temperature 37 °F 33 °F 64 °F (1998)
Min Temperature 15 °F 16 °F -15 °F (1985)
Degree Days  
Heating Degree Days 39    
Moisture  
Dew Point 22 °F    
Average Humidity 89    
Maximum Humidity 100    
Minimum Humidity 70    
Precipitation  
Precipitation 0.00 in - - ()
Sea Level Pressure  
Sea Level Pressure 29.51 in    
Wind  
Wind Speed 6 mph (SSE)    
Max Wind Speed 16 mph    
Max Gust Speed 24 mph    
Visibility 6 miles    
Events Fog    
Averages and records for this station are not official NWS values.
T = Trace of Precipitation, MM = Missing Value Source: NWS Daily Summary

Daily Weather History Graph

Daily Weather History Graph

Search for Another Location

Airport or City:

Trip Planner

Search our weather history database for the weather conditions in past years. The results will help you decide how hot, cold, wet, or windy it might be!

Date:

Astronomy

Nov. 29, 2014 Rise Set
Actual Time 7:27 AM CST 4:34 PM CST
Civil Twilight 6:54 AM CST 5:07 PM CST
Nautical Twilight 6:18 AM CST 5:43 PM CST
Astronomical Twilight 5:43 AM CST 6:18 PM CST
Moon 12:46 PM CST (11/29) No Moon Set
Length of Visible Light 10h 12m
Length of Day
9h 07m
First Quarter, 54% of the Moon is Illuminated
Nov 29
First Quarter
Dec 6
Full
Dec 14
Last Quarter
Dec 21
New
Dec 28
First Quarter

Hourly Weather History & Observations

Time (CST) Temp. Windchill Dew Point Humidity Pressure Visibility Wind Dir Wind Speed Gust Speed Precip Events Conditions
12:06 AM 17.6 °F 9.3 °F 15.8 °F 93% 29.66 in 7.0 mi East 5.8 mph - N/A   Clear
12:26 AM 17.6 °F 9.3 °F 15.8 °F 93% 29.64 in 7.0 mi East 5.8 mph - N/A   Clear
12:45 AM 17.6 °F 12.3 °F 15.8 °F 93% 29.63 in 7.0 mi ESE 3.5 mph - N/A   Clear
1:06 AM 15.8 °F 8.6 °F 15.8 °F 100% 29.63 in 7.0 mi East 4.6 mph - N/A   Clear
1:25 AM 17.6 °F 9.3 °F 17.6 °F 100% 29.61 in 7.0 mi ESE 5.8 mph - N/A   Clear
1:46 AM 17.6 °F 10.7 °F 15.8 °F 93% 29.60 in 7.0 mi ESE 4.6 mph - N/A   Clear
2:06 AM 15.8 °F 7.2 °F 15.8 °F 100% 29.60 in 7.0 mi East 5.8 mph - N/A   Clear
2:25 AM 15.8 °F 6.1 °F 15.8 °F 100% 29.58 in 7.0 mi East 6.9 mph - N/A   Clear
2:46 AM 17.6 °F 10.7 °F 15.8 °F 93% 29.58 in 7.0 mi East 4.6 mph - N/A   Clear
3:05 AM 17.6 °F 12.3 °F 15.8 °F 93% 29.58 in 7.0 mi East 3.5 mph - N/A   Clear
3:26 AM 17.6 °F 10.7 °F 15.8 °F 93% 29.56 in 5.0 mi East 4.6 mph - N/A   Clear
3:45 AM 17.6 °F 12.3 °F 17.6 °F 100% 29.56 in 5.0 mi East 3.5 mph - N/A   Clear
4:06 AM 17.6 °F 9.3 °F 15.8 °F 93% 29.55 in 5.0 mi East 5.8 mph - N/A   Clear
4:26 AM 17.6 °F 12.3 °F 17.6 °F 100% 29.54 in 5.0 mi East 3.5 mph - N/A   Clear
4:45 AM 17.6 °F 10.7 °F 17.6 °F 100% 29.53 in 5.0 mi East 4.6 mph - N/A   Clear
5:06 AM 19.4 °F 14.3 °F 17.6 °F 93% 29.52 in 5.0 mi East 3.5 mph - N/A   Clear
5:26 AM 17.6 °F 9.3 °F 17.6 °F 100% 29.51 in 5.0 mi East 5.8 mph - N/A   Clear
5:45 AM 17.6 °F 10.7 °F 17.6 °F 100% 29.50 in 4.0 mi ESE 4.6 mph - N/A   Clear
6:06 AM 19.4 °F 14.3 °F 17.6 °F 93% 29.50 in 4.0 mi East 3.5 mph - N/A   Clear
6:25 AM 17.6 °F 12.3 °F 17.6 °F 100% 29.49 in 4.0 mi ESE 3.5 mph - N/A   Clear
6:45 AM 17.6 °F - 17.6 °F 100% 29.49 in 3.0 mi Calm Calm - N/A   Clear
7:06 AM 19.4 °F - 19.4 °F 100% 29.50 in 3.0 mi Calm Calm - N/A   Clear
7:26 AM 19.4 °F 11.5 °F 17.6 °F 93% 29.48 in 1.2 mi East 5.8 mph - N/A   Mist
7:44 AM 15.8 °F 6.1 °F 15.8 °F 100% 29.48 in 0.2 mi East 6.9 mph - N/A Fog Light Freezing Fog
8:06 AM 15.8 °F 10.2 °F 14.0 °F 93% 29.47 in 0.8 mi East 3.5 mph - N/A   Mist
8:25 AM 19.4 °F 11.5 °F 19.4 °F 100% 29.47 in 1.5 mi SE 5.8 mph - N/A   Mostly Cloudy
8:46 AM 21.2 °F 12.6 °F 21.2 °F 100% 29.47 in 1.0 mi SSE 6.9 mph - N/A   Overcast
9:06 AM 23.0 °F 18.4 °F 23.0 °F 100% 29.48 in 0.5 mi SE 3.5 mph - N/A Fog Light Freezing Fog
9:25 AM 24.8 °F 19.1 °F 24.8 °F 100% 29.47 in 1.5 mi SE 4.6 mph - N/A   Overcast
9:46 AM 24.8 °F 19.1 °F 24.8 °F 100% 29.46 in 2.5 mi SE 4.6 mph - N/A   Scattered Clouds
10:05 AM 26.6 °F 21.2 °F 24.8 °F 93% 29.45 in 3.0 mi SE 4.6 mph - N/A   Clear
10:26 AM 26.6 °F 21.2 °F 24.8 °F 93% 29.44 in 4.0 mi SE 4.6 mph - N/A   Clear
10:45 AM 28.4 °F 24.6 °F 24.8 °F 86% 29.43 in 4.0 mi East 3.5 mph - N/A   Clear
11:06 AM 28.4 °F 23.3 °F 24.8 °F 86% 29.42 in 5.0 mi ESE 4.6 mph - N/A   Clear
11:26 AM 30.2 °F 25.4 °F 26.6 °F 86% 29.41 in 7.0 mi SE 4.6 mph - N/A   Clear
11:45 AM 32.0 °F 26.4 °F 26.6 °F 80% 29.40 in 7.0 mi SE 5.8 mph - N/A   Clear
12:06 PM 33.8 °F - 26.6 °F 75% 29.41 in 7.0 mi Calm Calm - N/A   Clear
12:26 PM 35.6 °F 32.8 °F 28.4 °F 75% 29.40 in 7.0 mi South 3.5 mph - N/A   Clear
12:45 PM 35.6 °F 31.7 °F 28.4 °F 75% 29.40 in 7.0 mi South 4.6 mph - N/A   Clear
1:06 PM 35.6 °F 31.7 °F 28.4 °F 75% 29.40 in 10.0 mi SSW 4.6 mph - N/A   Clear
1:25 PM 37.4 °F - 28.4 °F 70% 29.40 in 10.0 mi Calm Calm - N/A   Clear
1:46 PM 37.4 °F 34.9 °F 28.4 °F 70% 29.40 in 10.0 mi SW 3.5 mph - N/A   Clear
2:06 PM 37.4 °F 34.9 °F 28.4 °F 70% 29.40 in 10.0 mi West 3.5 mph - N/A   Clear
2:25 PM 37.4 °F 32.8 °F 28.4 °F 70% 29.41 in 10.0 mi West 5.8 mph - N/A   Clear
2:46 PM 37.4 °F - 28.4 °F 70% 29.41 in 10.0 mi Calm Calm - N/A   Clear
3:06 PM 37.4 °F - 28.4 °F 70% 29.42 in 10.0 mi Calm Calm - N/A   Clear
3:25 PM 37.4 °F 33.8 °F 28.4 °F 70% 29.41 in 10.0 mi WSW 4.6 mph - N/A   Clear
3:46 PM 35.6 °F 32.8 °F 26.6 °F 70% 29.42 in 10.0 mi SW 3.5 mph - N/A   Clear
4:05 PM 33.8 °F 30.8 °F 26.6 °F 75% 29.42 in 10.0 mi WSW 3.5 mph - N/A   Clear
4:26 PM 30.2 °F 25.4 °F 26.6 °F 86% 29.42 in 10.0 mi WSW 4.6 mph - N/A   Clear
4:46 PM 30.2 °F 25.4 °F 26.6 °F 86% 29.44 in 7.0 mi West 4.6 mph - N/A   Clear
5:05 PM 30.2 °F 25.4 °F 26.6 °F 86% 29.45 in 10.0 mi WSW 4.6 mph - N/A   Clear
5:26 PM 30.2 °F 24.3 °F 26.6 °F 86% 29.45 in 10.0 mi West 5.8 mph - N/A   Clear
5:46 PM 28.4 °F 20.4 °F 24.8 °F 86% 29.46 in 10.0 mi West 8.1 mph - N/A   Clear
6:06 PM 26.6 °F 17.5 °F 24.8 °F 93% 29.48 in 7.0 mi West 9.2 mph - N/A   Clear
6:26 PM 28.4 °F 19.7 °F 24.8 °F 86% 29.49 in 7.0 mi West 9.2 mph - N/A   Clear
6:45 PM 26.6 °F 16.2 °F 24.8 °F 93% 29.51 in 7.0 mi West 11.5 mph - N/A   Clear
7:06 PM 28.4 °F 17.5 °F 24.8 °F 86% 29.52 in 7.0 mi West 13.8 mph - N/A   Clear
7:26 PM 26.6 °F 15.7 °F 24.8 °F 93% 29.53 in 7.0 mi West 12.7 mph 17.3 mph N/A   Clear
7:45 PM 26.6 °F 16.2 °F 23.0 °F 86% 29.54 in 7.0 mi West 11.5 mph - N/A   Clear
8:06 PM 24.8 °F 13.4 °F 21.2 °F 86% 29.55 in 7.0 mi West 12.7 mph - N/A   Clear
8:26 PM 24.8 °F 14.0 °F 21.2 °F 86% 29.56 in 7.0 mi WNW 11.5 mph - N/A   Clear
8:45 PM 24.8 °F 13.4 °F 21.2 °F 86% 29.57 in 5.0 mi WNW 12.7 mph - N/A   Clear
9:06 PM 24.8 °F 13.4 °F 23.0 °F 93% 29.59 in 5.0 mi West 12.7 mph - N/A   Clear
9:26 PM 26.6 °F 15.2 °F 24.8 °F 93% 29.60 in 5.0 mi WNW 13.8 mph 18.4 mph N/A   Scattered Clouds
9:46 PM 26.6 °F 15.2 °F 24.8 °F 93% 29.60 in 5.0 mi WNW 13.8 mph - N/A   Mostly Cloudy
10:06 PM 26.6 °F 14.7 °F 24.8 °F 93% 29.60 in 5.0 mi WNW 15.0 mph - N/A   Mostly Cloudy
10:25 PM 26.6 °F 14.3 °F 23.0 °F 86% 29.61 in 5.0 mi WNW 16.1 mph - N/A   Overcast
10:46 PM 26.6 °F 17.5 °F 23.0 °F 86% 29.62 in 5.0 mi WNW 9.2 mph - N/A   Overcast
11:06 PM 26.6 °F 17.5 °F 23.0 °F 86% 29.63 in 7.0 mi WNW 9.2 mph - N/A   Overcast
11:25 PM 24.8 °F 12.4 °F 21.2 °F 86% 29.64 in 7.0 mi NW 15.0 mph - N/A   Overcast
11:46 PM 23.0 °F 10.1 °F 21.2 °F 93% 29.66 in 7.0 mi WNW 15.0 mph 24.2 mph N/A   Overcast